Stündliche Wetter Abryushino

Heute, 25 Juni, Freitag

Zeit Temperatur Niederschläge Wind Luftdruck Luftfeuchtigkeit
00:00 +21°C° 0.8 mm 1 m/S 756 mmHg 92%
01:00 +21°C° 0.8 mm 1 m/S 756 mmHg 94%
02:00 +21°C° 0.8 mm 1 m/S 756 mmHg 96%
03:00 +21°C° 0.1 mm 1 m/S 755 mmHg 96%
04:00 +22°C° 0.1 mm 1 m/S 755 mmHg 96%
05:00 +21°C° 0.1 mm 2 m/S 755 mmHg 96%
06:00 +23°C° 0.1 mm 1 m/S 755 mmHg 91%
07:00 +24°C° 0.1 mm 1 m/S 755 mmHg 87%
08:00 +26°C° 0.1 mm 1 m/S 755 mmHg 82%
09:00 +27°C° 0.1 mm 2 m/S 755 mmHg 75%
10:00 +29°C° 0.1 mm 2 m/S 755 mmHg 67%
11:00 +30°C° 0.1 mm 3 m/S 755 mmHg 59%
12:00 +31°C° 0.1 mm 3 m/S 755 mmHg 55%
13:00 +31°C° 0.1 mm 3 m/S 754 mmHg 51%
14:00 +32°C° 0.1 mm 2 m/S 754 mmHg 47%
15:00 +31°C° 0 mm 3 m/S 754 mmHg 50%
16:00 +31°C° 0 mm 3 m/S 753 mmHg 53%
17:00 +30°C° 0 mm 3 m/S 753 mmHg 56%
18:00 +28°C° 0.2 mm 3 m/S 753 mmHg 68%
19:00 +25°C° 0.2 mm 2 m/S 753 mmHg 79%
20:00 +23°C° 0.2 mm 2 m/S 753 mmHg 90%
21:00 +21°C° 0.5 mm 2 m/S 753 mmHg 92%
22:00 +21°C° 0.5 mm 1 m/S 753 mmHg 94%
23:00 +18°C° 0.5 mm 0 m/S 753 mmHg 96%

Morgen, 26 Juni, Samstag

Zeit Temperatur Niederschläge Wind Luftdruck Luftfeuchtigkeit
00:00 +20°C° 0.1 mm 1 m/S 754 mmHg 96%
01:00 +20°C° 0.1 mm 1 m/S 754 mmHg 96%
02:00 +20°C° 0.1 mm 1 m/S 754 mmHg 96%
03:00 +20°C° 0 mm 1 m/S 753 mmHg 96%
04:00 +20°C° 0 mm 1 m/S 753 mmHg 96%
05:00 +21°C° 0 mm 1 m/S 753 mmHg 96%
06:00 +21°C° 0.1 mm 1 m/S 753 mmHg 94%
07:00 +21°C° 0.1 mm 1 m/S 753 mmHg 92%
08:00 +22°C° 0.1 mm 1 m/S 754 mmHg 91%
09:00 +22°C° 0.2 mm 1 m/S 754 mmHg 90%
10:00 +21°C° 0.2 mm 2 m/S 754 mmHg 89%
11:00 +21°C° 0.2 mm 2 m/S 754 mmHg 88%
12:00 +23°C° 0.2 mm 2 m/S 754 mmHg 86%
13:00 +24°C° 0.2 mm 2 m/S 754 mmHg 83%
14:00 +24°C° 0.2 mm 2 m/S 754 mmHg 81%
15:00 +25°C° 0.1 mm 2 m/S 754 mmHg 75%
16:00 +26°C° 0.1 mm 2 m/S 754 mmHg 70%
17:00 +26°C° 0.1 mm 2 m/S 754 mmHg 64%
18:00 +25°C° 0 mm 2 m/S 754 mmHg 71%
19:00 +24°C° 0 mm 2 m/S 754 mmHg 78%
20:00 +23°C° 0 mm 1 m/S 754 mmHg 84%
21:00 +22°C° 0 mm 1 m/S 754 mmHg 88%
22:00 +21°C° 0 mm 1 m/S 755 mmHg 92%
23:00 +20°C° 0 mm 1 m/S 755 mmHg 96%

übermorgen, 27 Juni, Sonntag

Zeit Temperatur Niederschläge Wind Luftdruck Luftfeuchtigkeit
00:00 +19°C° 0 mm 1 m/S 755 mmHg 96%
01:00 +19°C° 0 mm 1 m/S 755 mmHg 96%
02:00 +17°C° 0 mm 2 m/S 755 mmHg 96%
03:00 +18°C° 0 mm 1 m/S 755 mmHg 94%
04:00 +19°C° 0 mm 1 m/S 755 mmHg 92%
05:00 +19°C° 0 mm 1 m/S 755 mmHg 90%
06:00 +20°C° 0 mm 1 m/S 755 mmHg 85%
07:00 +20°C° 0 mm 2 m/S 755 mmHg 79%
08:00 +21°C° 0 mm 2 m/S 755 mmHg 73%
09:00 +20°C° 0.5 mm 2 m/S 755 mmHg 78%
10:00 +20°C° 0.5 mm 2 m/S 755 mmHg 84%
11:00 +19°C° 0.5 mm 2 m/S 755 mmHg 89%
12:00 +20°C° 0.2 mm 2 m/S 755 mmHg 85%
13:00 +20°C° 0.2 mm 2 m/S 755 mmHg 82%
14:00 +22°C° 0.2 mm 1 m/S 755 mmHg 79%
15:00 +23°C° 0 mm 1 m/S 755 mmHg 71%
16:00 +24°C° 0 mm 2 m/S 754 mmHg 64%
17:00 +25°C° 0 mm 2 m/S 754 mmHg 56%
18:00 +24°C° 0 mm 1 m/S 754 mmHg 63%
19:00 +23°C° 0 mm 1 m/S 754 mmHg 69%
20:00 +21°C° 0 mm 1 m/S 754 mmHg 76%
21:00 +20°C° 0 mm 1 m/S 754 mmHg 79%
22:00 +18°C° 0 mm 2 m/S 754 mmHg 82%
23:00 +17°C° 0 mm 2 m/S 755 mmHg 85%

28 Juni, Montag

Zeit Temperatur Niederschläge Wind Luftdruck Luftfeuchtigkeit
00:00 +16°C° 0 mm 2 m/S 755 mmHg 88%
01:00 +16°C° 0 mm 2 m/S 755 mmHg 91%
02:00 +15°C° 0 mm 2 m/S 754 mmHg 95%
03:00 +15°C° 0 mm 2 m/S 755 mmHg 93%
04:00 +16°C° 0 mm 2 m/S 755 mmHg 92%
05:00 +16°C° 0 mm 2 m/S 755 mmHg 90%
06:00 +17°C° 0 mm 2 m/S 755 mmHg 81%
07:00 +19°C° 0 mm 2 m/S 755 mmHg 72%
08:00 +20°C° 0 mm 3 m/S 755 mmHg 64%
09:00 +22°C° 0 mm 3 m/S 755 mmHg 59%
10:00 +24°C° 0 mm 3 m/S 755 mmHg 55%
11:00 +25°C° 0 mm 3 m/S 755 mmHg 50%
12:00 +26°C° 0 mm 3 m/S 755 mmHg 49%
13:00 +26°C° 0 mm 3 m/S 754 mmHg 47%
14:00 +27°C° 0 mm 3 m/S 754 mmHg 45%
15:00 +27°C° 0 mm 3 m/S 754 mmHg 47%
16:00 +26°C° 0 mm 3 m/S 754 mmHg 49%
17:00 +26°C° 0 mm 3 m/S 754 mmHg 51%
18:00 +25°C° 0 mm 2 m/S 754 mmHg 58%
19:00 +23°C° 0 mm 2 m/S 753 mmHg 65%
20:00 +21°C° 0 mm 2 m/S 753 mmHg 72%
21:00 +20°C° 0 mm 2 m/S 753 mmHg 74%
22:00 +19°C° 0 mm 2 m/S 754 mmHg 77%
23:00 +18°C° 0 mm 2 m/S 754 mmHg 79%

29 Juni, Dienstag

Zeit Temperatur Niederschläge Wind Luftdruck Luftfeuchtigkeit
00:00 +18°C° 0 mm 2 m/S 754 mmHg 79%
01:00 +17°C° 0 mm 2 m/S 754 mmHg 80%
02:00 +16°C° 0 mm 2 m/S 754 mmHg 81%
03:00 +17°C° 0 mm 2 m/S 753 mmHg 80%
04:00 +17°C° 0 mm 2 m/S 753 mmHg 79%
05:00 +17°C° 0 mm 2 m/S 753 mmHg 79%
06:00 +19°C° 0 mm 2 m/S 753 mmHg 73%
07:00 +20°C° 0 mm 3 m/S 753 mmHg 67%
08:00 +22°C° 0 mm 3 m/S 753 mmHg 61%
09:00 +24°C° 0 mm 3 m/S 752 mmHg 57%
10:00 +25°C° 0 mm 3 m/S 752 mmHg 53%
11:00 +26°C° 0 mm 3 m/S 752 mmHg 49%
12:00 +27°C° 0 mm 3 m/S 752 mmHg 48%
13:00 +27°C° 0 mm 3 m/S 752 mmHg 47%
14:00 +27°C° 0 mm 3 m/S 751 mmHg 47%
15:00 +27°C° 0 mm 3 m/S 751 mmHg 50%
16:00 +26°C° 0 mm 2 m/S 751 mmHg 53%
17:00 +26°C° 0 mm 2 m/S 751 mmHg 56%
18:00 +24°C° 0 mm 2 m/S 751 mmHg 62%
19:00 +23°C° 0 mm 2 m/S 750 mmHg 67%
20:00 +22°C° 0 mm 1 m/S 750 mmHg 73%
21:00 +20°C° 0 mm 2 m/S 750 mmHg 75%
22:00 +19°C° 0 mm 2 m/S 750 mmHg 78%
23:00 +17°C° 0 mm 2 m/S 750 mmHg 80%

30 Juni, Mittwoch

Zeit Temperatur Niederschläge Wind Luftdruck Luftfeuchtigkeit
00:00 +17°C° 0 mm 2 m/S 750 mmHg 80%
01:00 +16°C° 0 mm 2 m/S 750 mmHg 80%
02:00 +15°C° 0 mm 2 m/S 750 mmHg 79%
03:00 +16°C° 0 mm 2 m/S 750 mmHg 80%
04:00 +16°C° 0 mm 1 m/S 750 mmHg 80%
05:00 +16°C° 0 mm 1 m/S 750 mmHg 80%
06:00 +18°C° 0 mm 2 m/S 749 mmHg 73%
07:00 +20°C° 0 mm 2 m/S 749 mmHg 66%
08:00 +23°C° 0 mm 2 m/S 749 mmHg 60%
09:00 +24°C° 0 mm 3 m/S 749 mmHg 55%
10:00 +26°C° 0 mm 3 m/S 748 mmHg 51%
11:00 +27°C° 0 mm 4 m/S 748 mmHg 47%
12:00 +27°C° 0 mm 3 m/S 748 mmHg 46%
13:00 +27°C° 0 mm 3 m/S 748 mmHg 46%
14:00 +27°C° 0 mm 2 m/S 748 mmHg 46%
15:00 +26°C° 0 mm 2 m/S 748 mmHg 48%
16:00 +26°C° 0 mm 2 m/S 747 mmHg 51%
17:00 +25°C° 0 mm 3 m/S 747 mmHg 53%
18:00 +23°C° 0.1 mm 2 m/S 748 mmHg 62%
19:00 +21°C° 0.1 mm 2 m/S 748 mmHg 71%
20:00 +19°C° 0.1 mm 2 m/S 748 mmHg 80%
21:00 +18°C° 0.1 mm 2 m/S 748 mmHg 84%
22:00 +17°C° 0.1 mm 2 m/S 748 mmHg 88%
23:00 +16°C° 0.1 mm 2 m/S 748 mmHg 93%
Mehr zeigen

Wir brauchen deine Erlaubnis

Meteoprog und unser Service Anbieter werden persönliche Daten aufbewahren, so wie Cookies, Geräte Bezeichnung oder ähnliche Technologien von deinem Gerät und Prozess, so wie Persönliche Daten Inhalte und Werbungen, genauso wie social Media und den Verkehr zu analysieren.

  • Aufbewahrung und/oder Zugang zu deiner Geräte Informationen.

    Cookies, Geräte Bezeichnung oder andere Informationen, können aufbewahrt oder Zugang zu deinem Gerät erhalten, für den Grund, der oben angegeben wird.

  • Personalisierte Werbung und Inhalte, Messungen, Einblick in das Publikum und Produkt Entwicklung.

    Werbungen und Inhalte können personalisiert werden, basierend auf ein Profil. Mehr Daten können besser personalisierte Werbungen und Inhalte hinzufügen. Werbung und Inhalte können gezeigt und gemessen werden. Einblicke über das Publikum, welche die Werbung gesehen haben und den Inhalt, können abgeleitet werden. So wie Daten können genutzt werden, um es zu verbessern oder die Benutzer Erfahrung zu verbessern das System und die Software.

Wenn du “Ich stimme zu” klickst, erlaubst du uns, die Cookies zu benutzen die Geräte Bezeichnung, den Web oder ähnliche Technologien zu benutzen. Deine Settings, können in deinem Gerät bei deinem Browser geändert werden.

Für den bestimmten Zweck, berechtigten Interessen beruhen darauf, mehr als auf den Inhalt. Du kannst mehr darüber in unseren Privaten und Cookie Politik lesen.